Regional Weather Roundup
Issued by NWS Mobile, AL

Home | Current Version | Previous Version | Text Only | Print | Product List | Glossary On
Versions: 1 2 3 4 5 6 7 8 9 10 11 12 13 14 15 16 17 18 19 20 21 22 23 24 25 26 27 28 29 30 31 32 33 34 35 36 37 38 39 40 41 42 43 44 45 46 47 48 49 50
000
ASUS44 KMOB 252007
RWRMOB
REGIONAL WEATHER ROUNDUP
NATIONAL WEATHER SERVICE MOBILE AL
300 PM CDT MON MAY 25 2015

ALZ061>064-252100-
COASTAL ALABAMA


CITY           SKY/WX    TMP DP  RH WIND       PRES   REMARKS
MOBILE REG APT CLOUDY    77  73  87 N10       30.12F
BROOKLEY FIELD LGT RAIN  75  71  87 N10       30.14S
GULF SHORES    CLOUDY    82  76  80 S7        30.11F

$$

ALZ051>060-252100-
INTERIOR SOUTHWEST AND SOUTH CENTRAL ALABAMA


CITY           SKY/WX    TMP DP  RH WIND       PRES   REMARKS
ANDALUSIA/OPP  NOT AVBL
EVERGREEN      LGT RAIN  70  69  97 N6          N/A  FOG
FLORALA        CLOUDY    74  71  91 VRB5      30.17R
GREENVILLE     TSTM      70  68  93 CALM      30.19S FOG

$$

FLZ001>006-252100-
WESTERN FLORIDA PANHANDLE


CITY           SKY/WX    TMP DP  RH WIND       PRES   REMARKS
CRESTVIEW      PTSUNNY   87  72  60 S15G23    30.14F
DESTIN         PTSUNNY   85  76  74 S9        30.12F
DUKE FIELD     FAIR      85  72  65 S16       30.12F
MARY ESTHER    NOT AVBL
MILTON           N/A    N/A N/A N/A MISG      30.12F
PENSACOLA      CLOUDY    82  76  81 S14       30.11F
NAS PENSACOLA  CLOUDY    83  77  82 S13G22    30.11F
VALPARAISO     PTSUNNY   85  75  71 S17       30.13F

$$

...MARINE OBSERVATIONS...

STATION/POSITION TIME  SKY/WX   TEMP    WIND        PRES    VSBY
                                AIR SEA DIR/SP/G
                 (UTC)          (F)     (DEG/KT/KT) (MB)    (MI)
PASCAGOULA       1900            80     150/  9/ 11 1019.7F
PETIT BOIS ISL   1900            81     140/  9/ 13 1020.1F
E DAUPHIN ISLAND 1900            79     150/ 10/ 11 1019.6F
MIDDLE BAY LIGHT 1900            79     150/ 13     1019.0F
USCG MOBILE BAY  1900            80 80  160/  5/  9 1019.4S
STATE DOCKS      1900            75 81              1020.2F
MEAHER PARK      1900            75     350/  6     1020.0S
FORT MORGAN      1900            79     170/ 10/ 10 1019.5F
12 S ORANGE BCH  1950            81 80  140/  8/ 10 1018.9F
WVE H/P(F/S)=  4/ 6

PENSACOLA BAY    1900            83 81  160/  6/  9 1020.6F
64 S DAUPHIN ISL 1950            81 80  150/ 10/ 12 1018.7F
WVE H/P(F/S)=  5/ 6

67 S FORT MORGAN 1930            80     160/ 16     1018.6F
115 SE PENSACOLA 1850            81 81  150/ 12/ 16 1020.7
WVE H/P(F/S)=  5/ 6

MID GULF/42001   1950            82 82  120/ 14/ 16 1017.4F
WVE H/P(F/S)=  3/ 6

EAST GULF/42003  1950            82 82  100/ 14/ 16 1018.6F
WVE H/P(F/S)=  4/ 6


$$

...NEARBY LOCATIONS

CITY           SKY/WX    TMP DP  RH WIND       PRES   REMARKS
GULFPORT       CLOUDY    80  73  79 SE9       30.09S
BILOXI         NOT AVBL
PASCAGOULA     CLOUDY    80  72  76 E5        30.09F
HATTIESBURG    CLOUDY    77  70  79 SE7       30.10F
LAUREL         CLOUDY    77  68  73 SE12      30.11F
MERIDIAN       CLOUDY    76  71  85 S13       30.11F
MERIDIAN NAS   CLOUDY    76  70  82 SE13G20   30.12F
MONTGOMERY     RAIN      70  67  90 CALM      30.19F FOG
MAXWELL AFB    RAIN      70  68  94 NE1       30.20S FOG
TROY           LGT RAIN  72  69  90 W5        30.20R
FORT RUCKER    TSTM      73  69  87 VRB7      30.17R FOG
DALEVILLE      LGT RAIN  72  68  88 E12       30.17R FOG
DOTHAN         TSTM      69  66  90 N7        30.23F VSB 1

$$

...OTHER SURROUNDING LOCATIONS...

CITY           SKY/WX    TMP DP  RH WIND       PRES   REMARKS
BIRMINGHAM     LGT RAIN  75  71  87 SE3       30.18F
TUSCALOOSA     CLOUDY    77  72  84 S9        30.14F
COLUMBUS GA    CLOUDY    74  71  91 NW5       30.18F
PANAMA CITY    NOT AVBL
TALLAHASSEE    PTSUNNY   91  68  46 SE13G20   30.14F HX  95
BATON ROUGE    TSTM      79  73  82 E10       30.01F
NEW ORLEANS    TSTM      73  69  87 N12G23    30.08R FOG
SLIDELL        TSTM      74  73  97 NW3       30.09R FOG
JACKSON        PTSUNNY   82  72  71 SE10      30.05F
MCCOMB         CLOUDY    72  70  93 SE13      30.08S THUNDER

$$

...SURROUNDING MARINE OBSERVATIONS...

STATION/POSITION TIME  SKY/WX   TEMP    WIND        PRES    VSBY
                                AIR SEA DIR/SP/G
                 (UTC)          (F)     (DEG/KT/KT) (MB)    (MI)
WAVELAND         1900            75 80  260/  4/  4 1019.2F
PASCAGOULA RGN A 1900            82     150/  8/ 12 1019.4F
PASCAGOULA PORT  1900               82                N/A
GRAND ISLE       1900            81 82  140/ 10/ 13 1017.9F
SOUTHWEST PASS   1900            81     130/ 11/ 12 1018.3F
PILOT STATION E  1900            84 75  140/  9/ 12 1018.6F
SHELL BEACH      1900            79 82  120/ 10/ 13 1017.7F
PANAMA CITY      1900            82 83  170/ 19/ 23 1019.9F
APALACHICOLA     1900            81 82  150/ 12/ 15 1021.1F
TYNDALL TOWER C  2000            79     130/ 13/ 14 1020.6F
S APLCHCLA/42036 1950            81 80  130/ 12/ 14 1020.6F
WVE H/P(F/S)=  3/ 5


$$



USA.gov is the U.S. government's official web portal to all federal, state and local government web resources and services.